Fortuna, CA

5:50 AM PDT on September 18, 2019 (GMT -0700)
Rohnerville

Weather History for KFOT - July, 2019

Change the Weather History Date:

Monday, July 22, 2019

  Actual Average (KEKA) Record (KEKA)
Temperature  
Mean Temperature 60 °F -  
Max Temperature 68 °F 62 °F 73 °F (2007)
Min Temperature 53 °F 53 °F 47 °F (1962)
Degree Days  
Heating Degree Days 4    
Growing Degree Days 10 (Base 50)    
Moisture  
Dew Point 54 °F    
Average Humidity 84    
Maximum Humidity 100    
Minimum Humidity 52    
Precipitation  
Precipitation 0.00 in - - ()
Sea Level Pressure  
Sea Level Pressure 30.05 in    
Wind  
Wind Speed 5 mph (WNW)    
Max Wind Speed 17 mph    
Max Gust Speed 23 mph    
Visibility 8 miles    
Events      
Averages and records for this station are not official NWS values.
T = Trace of Precipitation, MM = Missing Value Source: NWS Daily Summary

Daily Weather History Graph

Daily Weather History Graph

Search for Another Location

Airport or City:

Astronomy

Jul. 22, 2019 Rise Set
Actual Time 6:04 AM PDT 8:41 PM PDT
Civil Twilight 5:32 AM PDT 9:12 PM PDT
Nautical Twilight 4:53 AM PDT 9:51 PM PDT
Astronomical Twilight 4:08 AM PDT 10:36 PM PDT
Moon No Moon Rise 11:27 AM PDT (7/22)
Length of Visible Light 15h 39m
Length of Day
14h 36m
Waning Gibbous, 71% of the Moon is Illuminated
Jul 22
Waning Gibbous
Jul 24
Last Quarter
Jul 31
New
Aug 7
First Quarter
Aug 15
Full

Hourly Weather History & Observations

Time (PDT) Temp. Dew Point Humidity Pressure Visibility Wind Dir Wind Speed Gust Speed Precip Events Conditions
12:10 AM 55.4 °F 53.6 °F 94% 30.04 in 10.0 mi NNW 3.5 mph - N/A   Overcast
12:30 AM 55.4 °F 53.6 °F 94% 30.03 in 10.0 mi North 3.5 mph - N/A   Overcast
12:50 AM 55.4 °F 53.6 °F 94% 30.04 in 10.0 mi Calm Calm - N/A   Overcast
1:10 AM 55.4 °F 53.6 °F 94% 30.03 in 10.0 mi Calm Calm - N/A   Overcast
1:30 AM 55.4 °F 53.6 °F 94% 30.03 in 5.0 mi Calm Calm - N/A   Overcast
1:50 AM 55.4 °F 53.6 °F 94% 30.03 in 9.0 mi Calm Calm - N/A   Overcast
2:10 AM 55.4 °F 53.6 °F 94% 30.03 in 9.0 mi Calm Calm - N/A   Overcast
2:30 AM 55.4 °F 53.6 °F 94% 30.02 in 10.0 mi WNW 3.5 mph - N/A   Overcast
2:50 AM 55.4 °F 53.6 °F 94% 30.02 in 10.0 mi Calm Calm - N/A   Overcast
3:10 AM 55.4 °F 53.6 °F 94% 30.02 in 10.0 mi West 3.5 mph - N/A   Overcast
3:30 AM 55.4 °F 53.6 °F 94% 30.01 in 9.0 mi WNW 3.5 mph - N/A   Overcast
3:50 AM 55.4 °F 53.6 °F 94% 30.01 in 8.0 mi WNW 5.8 mph - N/A   Overcast
4:10 AM 55.4 °F 53.6 °F 94% 30.02 in 7.0 mi WNW 3.5 mph - N/A   Overcast
4:30 AM 55.4 °F 53.6 °F 94% 30.02 in 7.0 mi Calm Calm - N/A   Overcast
4:50 AM 55.4 °F 53.6 °F 94% 30.02 in 5.0 mi West 3.5 mph - N/A   Overcast
5:10 AM 55.4 °F 53.6 °F 94% 30.02 in 2.0 mi WNW 3.5 mph - N/A   Overcast
5:30 AM 55.4 °F 53.6 °F 94% 30.03 in 2.5 mi WNW 4.6 mph - N/A   Overcast
5:50 AM 55.4 °F 53.6 °F 94% 30.03 in 0.8 mi West 3.5 mph - N/A   Overcast
6:10 AM 55.4 °F 53.6 °F 94% 30.03 in 1.0 mi West 3.5 mph - N/A   Overcast
6:30 AM 55.4 °F 53.6 °F 94% 30.03 in 0.5 mi Calm Calm - N/A   Overcast
6:50 AM 55.4 °F 53.6 °F 94% 30.03 in 0.8 mi WNW 3.5 mph - N/A   Overcast
7:10 AM 55.4 °F 53.6 °F 94% 30.03 in 0.2 mi NW 3.5 mph - N/A   Overcast
7:30 AM 55.4 °F 53.6 °F 94% 30.03 in 0.2 mi WNW 4.6 mph - N/A   Overcast
7:50 AM 55.4 °F 53.6 °F 94% 30.04 in 0.5 mi NW 3.5 mph - N/A   Overcast
8:10 AM 53.6 °F 53.6 °F 100% 30.04 in 1.2 mi WNW 3.5 mph - N/A   Overcast
8:30 AM 55.4 °F 53.6 °F 94% 30.04 in 1.2 mi NW 3.5 mph - N/A   Overcast
8:50 AM 55.4 °F 53.6 °F 94% 30.05 in 1.8 mi Calm Calm - N/A   Overcast
9:10 AM 55.4 °F 55.4 °F 100% 30.05 in 3.0 mi NW 3.5 mph - N/A   Overcast
9:30 AM 55.4 °F 55.4 °F 100% 30.06 in 5.0 mi WNW 3.5 mph - N/A   Overcast
9:50 AM 55.4 °F 55.4 °F 100% 30.06 in 8.0 mi West 3.5 mph - N/A   Overcast
10:10 AM 55.4 °F 55.4 °F 100% 30.06 in 9.0 mi WNW 5.8 mph - N/A   Overcast
10:30 AM 57.2 °F 55.4 °F 94% 30.06 in 10.0 mi West 5.8 mph - N/A   Overcast
10:50 AM 59.0 °F 55.4 °F 88% 30.07 in 10.0 mi West 5.8 mph - N/A   Mostly Cloudy
11:10 AM 60.8 °F 55.4 °F 82% 30.07 in 10.0 mi WNW 4.6 mph - N/A   Mostly Cloudy
11:30 AM 64.4 °F 55.4 °F 73% 30.07 in 10.0 mi WNW 4.6 mph - N/A   Mostly Cloudy
11:50 AM 64.4 °F 55.4 °F 73% 30.07 in 10.0 mi West 8.1 mph - N/A   Scattered Clouds
12:10 PM 66.2 °F 55.4 °F 68% 30.07 in 10.0 mi West 9.2 mph - N/A   Partly Cloudy
12:30 PM 66.2 °F 55.4 °F 68% 30.07 in 10.0 mi West 11.5 mph - N/A   Partly Cloudy
12:50 PM 66.2 °F 53.6 °F 64% 30.07 in 10.0 mi West 12.7 mph - N/A   Partly Cloudy
1:10 PM 68.0 °F 53.6 °F 60% 30.07 in 10.0 mi West 15.0 mph - N/A   Partly Cloudy
1:30 PM 68.0 °F 53.6 °F 60% 30.07 in 10.0 mi West 15.0 mph - N/A   Partly Cloudy
1:50 PM 68.0 °F 50.0 °F 52% 30.07 in 10.0 mi West 15.0 mph - N/A   Partly Cloudy
2:10 PM 68.0 °F 51.8 °F 56% 30.07 in 10.0 mi West 15.0 mph 21.9 mph N/A   Scattered Clouds
2:30 PM 68.0 °F 51.8 °F 56% 30.06 in 10.0 mi West 17.3 mph 21.9 mph N/A   Scattered Clouds
2:50 PM 68.0 °F 53.6 °F 60% 30.07 in 10.0 mi West 15.0 mph - N/A   Partly Cloudy
3:10 PM 68.0 °F 53.6 °F 60% 30.07 in 10.0 mi West 16.1 mph 23.0 mph N/A   Scattered Clouds
3:30 PM 66.2 °F 53.6 °F 64% 30.07 in 10.0 mi West 17.3 mph 21.9 mph N/A   Scattered Clouds
3:50 PM 66.2 °F 53.6 °F 64% 30.07 in 10.0 mi West 16.1 mph 21.9 mph N/A   Partly Cloudy
4:10 PM 66.2 °F 53.6 °F 64% 30.07 in 10.0 mi West 17.3 mph 21.9 mph N/A   Partly Cloudy
4:30 PM 66.2 °F 53.6 °F 64% 30.07 in 10.0 mi West 15.0 mph 21.9 mph N/A   Clear
4:50 PM 66.2 °F 53.6 °F 64% 30.06 in 10.0 mi West 13.8 mph 23.0 mph N/A   Clear
5:10 PM 66.2 °F 53.6 °F 64% 30.06 in 10.0 mi West 16.1 mph - N/A   Clear
5:30 PM 66.2 °F 51.8 °F 60% 30.07 in 10.0 mi West 17.3 mph - N/A   Clear
5:50 PM 66.2 °F 51.8 °F 60% 30.06 in 10.0 mi West 16.1 mph - N/A   Clear
6:10 PM 64.4 °F 53.6 °F 68% 30.06 in 10.0 mi West 12.7 mph 18.4 mph N/A   Clear
6:30 PM 64.4 °F 53.6 °F 68% 30.06 in 10.0 mi West 16.1 mph 19.6 mph N/A   Clear
6:50 PM 64.4 °F 53.6 °F 68% 30.06 in 10.0 mi West 11.5 mph - N/A   Clear
7:10 PM 62.6 °F 53.6 °F 72% 30.06 in 10.0 mi West 13.8 mph 19.6 mph N/A   Clear
7:30 PM 60.8 °F 53.6 °F 77% 30.07 in 10.0 mi West 12.7 mph - N/A   Clear
7:50 PM 59.0 °F 55.4 °F 88% 30.07 in 10.0 mi West 12.7 mph - N/A   Clear
8:10 PM 59.0 °F 55.4 °F 88% 30.07 in 10.0 mi West 10.4 mph - N/A   Clear
8:30 PM 57.2 °F 53.6 °F 88% 30.07 in 10.0 mi West 10.4 mph - N/A   Clear
8:50 PM 57.2 °F 53.6 °F 88% 30.07 in 10.0 mi West 8.1 mph - N/A   Clear
9:10 PM 57.2 °F 53.6 °F 88% 30.07 in 10.0 mi West 8.1 mph - N/A   Clear
9:30 PM 55.4 °F 53.6 °F 94% 30.07 in 10.0 mi West 5.8 mph - N/A   Clear
9:50 PM 55.4 °F 53.6 °F 94% 30.08 in 10.0 mi WNW 5.8 mph - N/A   Clear
10:10 PM 55.4 °F 53.6 °F 94% 30.08 in 10.0 mi West 4.6 mph - N/A   Clear
10:30 PM 55.4 °F 53.6 °F 94% 30.08 in 10.0 mi WNW 4.6 mph - N/A   Mostly Cloudy
10:50 PM 55.4 °F 53.6 °F 94% 30.09 in 10.0 mi Calm Calm - N/A   Overcast
11:10 PM 55.4 °F 53.6 °F 94% 30.08 in 10.0 mi Calm Calm - N/A   Overcast
11:30 PM 55.4 °F 55.4 °F 100% 30.08 in 10.0 mi Calm Calm - N/A   Overcast
11:50 PM 57.2 °F 55.4 °F 94% 30.08 in 10.0 mi Calm Calm - N/A   Overcast